EW3827 Weather Reports


time (UTC)temp
F
wind
direction
speed
knots
gust
knots
rain 1hr
in
rain 24hr
in
rain mn
in
humidity
%
barometer
mb
20260506202009 68 227 2.6 9.6 0.00 0.00 0.00 72 1007.0
20260506201510 68 232 2.6 9.6 0.00 0.00 0.00 72 1007.0
20260506201009 68 226 2.6 9.6 0.00 0.00 0.00 72 1007.0
20260506200010 68 224 4.3 14.8 0.00 0.00 0.00 73 1007.3
20260506195509 67 224 4.3 15.6 0.00 0.00 0.00 74 1007.3
20260506195010 67 222 4.3 15.6 0.00 0.00 0.00 73 1007.4
20260506194509 67 220 4.3 13.9 0.00 0.00 0.00 74 1007.4
20260506194010 67 226 3.5 13.9 0.00 0.00 0.00 74 1007.5
20260506193509 67 222 2.6 8.7 0.00 0.00 0.00 74 1007.6
20260506193010 67 221 2.6 8.7 0.00 0.00 0.00 74 1007.7
20260506192510 67 225 3.5 10.4 0.00 0.00 0.00 74 1007.6
20260506192009 67 224 3.5 11.3 0.00 0.00 0.00 75 1007.7
20260506191510 66 222 4.3 18.2 0.00 0.00 0.00 74 1007.7
20260506191009 66 219 4.3 18.2 0.00 0.00 0.00 74 1007.8
20260506190510 66 224 4.3 13.0 0.00 0.00 0.00 74 1007.7
20260506190009 66 227 4.3 13.0 0.00 0.00 0.00 74 1007.8
20260506185510 66 220 3.5 10.4 0.00 0.00 0.00 75 1007.7
20260506185009 66 218 2.6 10.4 0.00 0.00 0.00 75 1007.8
20260506184509 66 221 3.5 13.0 0.00 0.00 0.00 76 1007.9
20260506184009 66 219 5.2 13.0 0.00 0.00 0.00 75 1008.1
20260506183509 66 221 6.1 13.0 0.00 0.00 0.00 75 1008.1
20260506183010 66 220 5.2 14.8 0.00 0.00 0.00 74 1008.2
20260506182509 67 221 4.3 14.8 0.00 0.00 0.00 72 1008.2
20260506182010 67 221 4.3 13.9 0.00 0.00 0.00 72 1008.1
20260506181510 67 221 5.2 13.9 0.00 0.00 0.00 72 1008.2
20260506181009 67 218 5.2 13.9 0.00 0.00 0.00 72 1008.1
20260506180510 66 215 5.2 12.2 0.00 0.00 0.00 72 1008.1
20260506180009 66 221 5.2 12.2 0.00 0.00 0.00 73 1008.1
20260506175510 66 218 3.5 9.6 0.00 0.00 0.00 74 1008.1
20260506175009 66 217 4.3 9.6 0.00 0.00 0.00 73 1008.3
20260506174509 66 214 5.2 14.8 0.00 0.00 0.00 73 1008.4
20260506174010 67 216 4.3 15.6 0.00 0.00 0.00 72 1008.4
20260506173509 67 219 4.3 15.6 0.00 0.00 0.00 72 1008.4
20260506173010 67 220 4.3 9.6 0.00 0.00 0.00 71 1008.4
20260506172509 67 220 4.3 12.2 0.00 0.00 0.00 72 1008.5
20260506172010 67 222 4.3 12.2 0.00 0.00 0.00 72 1008.4
20260506171509 67 229 5.2 13.0 0.00 0.00 0.00 73 1008.5
20260506171010 68 226 5.2 13.0 0.00 0.00 0.00 71 1008.4
20260506170009 68 216 4.3 13.9 0.00 0.00 0.00 73 1008.5
20260506165009 69 222 4.3 9.6 0.00 0.00 0.00 74 1008.6
20260506164510 68 220 4.3 10.4 0.00 0.00 0.00 74 1008.7
20260506164009 68 220 4.3 10.4 0.00 0.00 0.00 71 1008.7
20260506163510 68 213 3.5 9.6 0.00 0.00 0.00 71 1008.8
20260506163009 68 207 3.5 9.6 0.00 0.00 0.00 71 1009.1
20260506162510 68 208 3.5 8.7 0.00 0.00 0.00 71 1009.3
20260506162009 68 213 3.5 13.0 0.00 0.00 0.00 70 1009.4
20260506161510 68 216 3.5 13.0 0.00 0.00 0.00 69 1009.6
20260506161009 68 220 2.6 10.4 0.00 0.00 0.00 69 1009.7
20260506160510 68 220 2.6 9.6 0.00 0.00 0.00 69 1009.7
20260506160010 68 220 3.5 9.6 0.00 0.00 0.00 68 1009.8
20260506155509 68 221 3.5 9.6 0.00 0.00 0.00 67 1009.8
20260506155009 69 215 3.5 13.0 0.00 0.00 0.00 66 1009.8
20260506154509 69 216 4.3 13.0 0.00 0.00 0.00 65 1009.7
20260506154009 69 218 4.3 10.4 0.00 0.00 0.00 64 1009.6
20260506153509 69 218 4.3 10.4 0.00 0.00 0.00 63 1009.6
20260506153009 69 218 4.3 13.9 0.00 0.00 0.00 62 1009.8
20260506152510 69 217 4.3 13.9 0.00 0.00 0.00 61 1009.8
20260506151010 70 218 3.5 9.6 0.00 0.00 0.00 60 1009.6
20260506150509 70 221 5.2 11.3 0.00 0.00 0.00 61 1009.8
20260506150010 70 221 6.1 12.2 0.00 0.00 0.00 61 1009.7
20260506145009 69 222 4.3 15.6 0.00 0.00 0.00 61 1009.8
20260506144510 69 222 6.1 17.4 0.00 0.00 0.00 61 1009.9
20260506144009 69 220 4.3 17.4 0.00 0.00 0.00 60 1009.9
20260506143509 69 219 4.3 12.2 0.00 0.00 0.00 60 1009.9
20260506143009 69 217 6.1 16.5 0.00 0.00 0.00 60 1009.8
20260506142509 70 219 6.1 16.5 0.00 0.00 0.00 59 1009.8
20260506142010 70 223 5.2 12.2 0.00 0.00 0.00 60 1009.8
20260506141509 70 220 5.2 12.2 0.00 0.00 0.00 60 1009.7
20260506141010 70 223 5.2 23.5 0.00 0.00 0.00 60 1009.8
20260506140509 70 227 5.2 23.5 0.00 0.00 0.00 61 1009.7
20260506140010 69 226 4.3 13.0 0.00 0.00 0.00 61 1009.6
20260506135510 69 225 5.2 15.6 0.00 0.00 0.00 61 1009.6
20260506135009 69 226 5.2 15.6 0.00 0.00 0.00 61 1009.6
20260506134509 69 220 5.2 18.2 0.00 0.00 0.00 60 1009.6
20260506134010 69 218 5.2 18.2 0.00 0.00 0.00 60 1009.6
20260506133010 70 227 4.3 16.5 0.00 0.00 0.00 60 1009.6
20260506132509 70 225 5.2 16.5 0.00 0.00 0.00 60 1009.6
20260506132010 70 222 5.2 13.0 0.00 0.00 0.00 61 1009.7
20260506131510 70 221 4.3 18.2 0.00 0.00 0.00 60 1009.8
20260506130509 70 217 6.1 19.1 0.00 0.00 0.00 61 1009.9
20260506130010 70 219 4.3 19.1 0.00 0.00 0.00 61 1009.7
20260506125509 70 221 3.5 11.3 0.00 0.00 0.00 64 1010.0
20260506125010 69 220 3.5 9.6 0.00 0.00 0.00 64 1010.0
20260506124509 68 221 4.3 13.0 0.00 0.00 0.00 65 1010.0
20260506124010 68 218 5.2 13.0 0.00 0.00 0.00 64 1009.9
20260506123509 68 218 4.3 10.4 0.00 0.00 0.00 65 1009.9
20260506123010 68 214 3.5 10.4 0.00 0.00 0.00 66 1009.9
20260506122509 67 216 3.5 9.6 0.00 0.00 0.00 67 1009.9
20260506122010 67 219 2.6 9.6 0.00 0.00 0.00 68 1010.0
20260506121510 66 218 2.6 7.8 0.00 0.00 0.00 69 1010.1
20260506120510 66 210 4.3 9.6 0.00 0.00 0.00 70 1010.0
20260506120010 66 212 4.3 11.3 0.00 0.00 0.00 70 1010.1
20260506115509 66 204 3.5 11.3 0.00 0.00 0.00 70 1010.0
20260506115009 65 200 4.3 9.6 0.00 0.00 0.00 70 1010.2
20260506114509 65 212 3.5 12.2 0.00 0.00 0.00 70 1010.2
20260506114009 65 212 4.3 12.2 0.00 0.00 0.00 70 1010.2
20260506113510 65 214 5.2 10.4 0.00 0.00 0.00 70 1010.3
20260506113009 65 224 4.3 12.2 0.00 0.00 0.00 70 1010.2
20260506112509 65 222 3.5 12.2 0.00 0.00 0.00 71 1010.2
20260506112010 65 213 3.5 10.4 0.00 0.00 0.00 71 1010.2
20260506111509 65 214 3.5 9.6 0.00 0.00 0.00 71 1010.2
20260506111009 64 211 2.6 11.3 0.00 0.00 0.00 72 1010.3
20260506110509 64 208 2.6 11.3 0.00 0.00 0.00 73 1010.2
20260506110009 64 214 3.5 7.8 0.00 0.00 0.00 73 1010.1
20260506105510 64 213 3.5 8.7 0.00 0.00 0.00 73 1010.2
20260506104509 63 213 2.6 8.7 0.00 0.00 0.00 74 1010.0
20260506104009 63 214 3.5 9.6 0.00 0.00 0.00 75 1010.0
20260506103509 63 216 2.6 9.6 0.00 0.00 0.00 75 1010.1
20260506103009 63 208 2.6 8.7 0.00 0.00 0.00 76 1010.2
20260506102509 62 209 2.6 7.8 0.00 0.00 0.00 76 1010.1
20260506102010 62 219 2.6 8.7 0.00 0.00 0.00 76 1010.2
20260506101509 62 216 2.6 8.7 0.00 0.00 0.00 76 1010.2
20260506101010 62 207 2.6 7.8 0.00 0.00 0.00 76 1010.2
20260506100509 62 200 2.6 7.8 0.00 0.00 0.00 77 1010.1
20260506095510 63 206 2.6 8.7 0.00 0.00 0.00 77 1010.0
20260506095009 63 209 2.6 8.7 0.00 0.00 0.00 77 1010.0
20260506094509 63 226 2.6 8.7 0.00 0.00 0.00 76 1009.9
20260506094009 63 220 3.5 8.7 0.00 0.00 0.00 76 1009.9
20260506093509 63 211 2.6 7.0 0.00 0.00 0.00 76 1009.9
20260506093009 63 214 2.6 7.0 0.00 0.00 0.00 76 1009.8
20260506092509 63 213 2.6 8.7 0.00 0.00 0.00 76 1009.9
20260506092010 63 201 2.6 8.7 0.00 0.00 0.00 76 1009.9
20260506091509 63 203 2.6 8.7 0.00 0.00 0.00 76 1010.0
20260506091009 63 216 2.6 8.7 0.00 0.00 0.00 76 1010.0
20260506090509 63 214 2.6 7.0 0.00 0.00 0.00 76 1010.1
20260506085510 63 214 2.6 7.8 0.00 0.00 0.00 76 1010.2
20260506085009 63 210 2.6 7.0 0.00 0.00 0.00 76 1010.2
20260506084510 63 208 2.6 7.8 0.00 0.00 0.00 77 1010.2
20260506084009 63 214 2.6 7.8 0.00 0.00 0.00 77 1010.3
20260506083010 63 203 2.6 7.0 0.00 0.00 0.00 77 1010.3
20260506082509 63 208 1.7 7.0 0.00 0.00 0.00 77 1010.4
20260506082009 63 217 1.7 6.1 0.00 0.00 0.00 77 1010.4
20260506080509 63 226 2.6 7.8 0.00 0.00 0.00 76 1010.3
20260506073509 64 228 1.7 4.3 0.00 0.00 0.00 76 1010.1
20260506073010 64 214 1.7 7.0 0.00 0.00 0.00 76 1010.3
20260506072009 64 199 2.6 7.8 0.00 0.00 0.00 75 1010.3
20260506071510 64 199 2.6 7.8 0.00 0.00 0.00 75 1010.4
20260506071009 64 209 1.7 7.0 0.00 0.00 0.00 75 1010.5
20260506070509 64 200 1.7 7.0 0.00 0.00 0.00 75 1010.5
20260506062509 65 216 2.6 7.8 0.00 0.00 0.00 73 1010.4
20260506062009 65 200 2.6 7.0 0.00 0.00 0.00 72 1010.5
20260506061509 66 207 2.6 7.0 0.00 0.00 0.00 72 1010.4
20260506061009 66 220 3.5 10.4 0.00 0.00 0.00 72 1010.5
20260506060509 66 211 3.5 10.4 0.00 0.00 0.00 71 1010.5
20260506051009 67 218 4.3 10.4 0.00 0.00 0.00 69 1010.8
20260506050509 67 215 3.5 10.4 0.00 0.00 0.00 69 1010.7
20260506045009 67 215 3.5 9.6 0.00 0.00 0.00 69 1010.8
20260506044509 67 216 3.5 9.6 0.00 0.00 0.00 69 1010.9
20260506044009 67 211 2.6 8.7 0.00 0.00 0.00 69 1010.9
20260506043509 67 214 2.6 11.3 0.00 0.00 0.00 69 1010.9
20260506043009 67 216 3.5 11.3 0.00 0.00 0.00 68 1011.0
20260506042509 67 211 3.5 12.2 0.00 0.00 0.00 68 1010.9
20260506042009 67 210 3.5 12.2 0.00 0.00 0.00 67 1010.9
20260506041509 67 214 3.5 12.2 0.00 0.00 0.00 67 1010.9
20260506041009 67 221 3.5 11.3 0.00 0.00 0.00 67 1010.9
20260506040509 67 212 3.5 8.7 0.00 0.00 0.00 67 1010.8
20260506040010 67 205 4.3 8.7 0.00 0.00 0.00 66 1010.8
20260506035509 67 211 3.5 8.7 0.00 0.00 0.00 66 1010.8
20260506035009 67 219 3.5 13.0 0.00 0.00 0.00 66 1010.7
20260506034509 67 216 4.3 13.9 0.00 0.00 0.00 66 1010.8
20260506034009 67 212 4.3 13.9 0.00 0.00 0.00 65 1010.7
20260506033510 68 212 4.3 10.4 0.00 0.00 0.00 65 1010.8
20260506033009 68 213 4.3 9.6 0.00 0.00 0.00 65 1010.8
20260506032509 68 209 5.2 10.4 0.00 0.00 0.00 64 1010.8
20260506030509 68 215 4.3 13.0 0.00 0.00 0.00 63 1010.9
20260506030010 68 220 4.3 13.0 0.00 0.00 0.00 62 1010.7
20260506025509 68 207 4.3 13.0 0.00 0.00 0.00 62 1010.8
20260506025009 69 214 4.3 13.0 0.00 0.00 0.00 62 1010.9
20260506024009 69 211 5.2 14.8 0.00 0.00 0.00 60 1010.9
20260506023509 69 206 5.2 14.8 0.00 0.00 0.00 60 1010.8
20260506023009 69 206 4.3 13.0 0.00 0.00 0.00 60 1010.9
20260506022509 69 207 4.3 14.8 0.00 0.00 0.00 59 1010.9
20260506022009 69 212 5.2 14.8 0.00 0.00 0.00 59 1010.9
20260506021509 70 214 5.2 11.3 0.00 0.00 0.00 58 1011.0
20260506020509 70 209 4.3 12.2 0.00 0.00 0.00 57 1010.8
20260506015509 70 211 3.5 9.6 0.00 0.00 0.00 56 1010.8
20260506015009 70 210 3.5 10.4 0.00 0.00 0.00 56 1010.7
20260506014509 70 216 3.5 10.4 0.00 0.00 0.00 55 1010.6
20260506014009 70 216 3.5 9.6 0.00 0.00 0.00 55 1010.6
20260506013509 70 207 3.5 10.4 0.00 0.00 0.00 55 1010.6
20260506013010 71 203 3.5 11.3 0.00 0.00 0.00 55 1010.6
20260506012509 71 198 3.5 11.3 0.00 0.00 0.00 55 1010.5
20260506012009 71 206 3.5 11.3 0.00 0.00 0.00 55 1010.4
20260506010509 71 210 4.3 10.4 0.00 0.00 0.00 55 1010.4
20260506010009 71 201 4.3 13.0 0.00 0.00 0.00 54 1010.3
20260506005509 71 197 4.3 13.0 0.00 0.00 0.00 54 1010.2
20260506005009 71 201 4.3 10.4 0.00 0.00 0.00 54 1010.3
20260506004008 72 202 3.5 10.4 0.00 0.00 0.00 54 1010.3
20260506003509 72 208 3.5 11.3 0.00 0.00 0.00 53 1010.2
20260506003009 72 218 4.3 11.3 0.00 0.00 0.00 53 1010.1
20260506002509 72 222 5.2 13.0 0.00 0.00 0.00 53 1010.0
20260506002009 73 218 5.2 13.0 0.00 0.00 0.00 52 1010.0
20260506001509 73 216 5.2 13.0 0.00 0.00 0.00 51 1009.8
20260506001009 73 211 4.3 13.0 0.00 0.00 0.00 50 1009.9
20260506000509 74 210 4.3 13.0 0.00 0.00 0.00 49 1009.8
20260506000009 74 206 5.2 11.3 0.00 0.00 0.00 48 1009.8
20260505235509 74 207 4.3 11.3 0.00 0.00 0.00 46 1009.7
20260505235009 75 215 3.5 11.3 0.00 0.00 0.00 45 1009.7
20260505234509 75 215 3.5 10.4 0.00 0.00 0.00 44 1009.7
20260505233509 76 215 4.3 9.6 0.00 0.00 0.00 42 1009.4
20260505233009 77 219 3.5 9.6 0.00 0.00 0.00 41 1009.4
20260505232509 77 211 3.5 9.6 0.00 0.00 0.00 40 1009.2
20260505232009 78 208 4.3 11.3 0.00 0.00 0.00 38 1009.3
20260505231009 78 218 7.0 15.6 0.00 0.00 0.00 36 1009.1
20260505230509 78 213 5.2 14.8 0.00 0.00 0.00 36 1009.0
20260505230009 79 212 5.2 15.6 0.00 0.00 0.00 36 1009.1
20260505225509 79 215 4.3 15.6 0.00 0.00 0.00 36 1009.1
20260505225009 80 225 5.2 14.8 0.00 0.00 0.00 36 1009.0
20260505224509 80 222 6.1 14.8 0.00 0.00 0.00 35 1009.1
20260505223509 80 218 6.1 15.6 0.00 0.00 0.00 35 1008.9
20260505223009 81 218 5.2 14.8 0.00 0.00 0.00 35 1008.9
20260505222509 81 211 6.1 13.9 0.00 0.00 0.00 35 1009.0
20260505222009 81 215 6.1 13.9 0.00 0.00 0.00 34 1008.9
20260505221509 82 221 5.2 13.0 0.00 0.00 0.00 33 1008.7
20260505221009 82 222 6.1 14.8 0.00 0.00 0.00 33 1009.0
20260505220509 82 222 6.1 19.1 0.00 0.00 0.00 32 1008.9
20260505220009 82 223 6.1 19.1 0.00 0.00 0.00 32 1008.8
20260505215509 82 224 7.0 22.6 0.00 0.00 0.00 33 1008.8
20260505215009 82 222 7.0 22.6 0.00 0.00 0.00 31 1008.7
20260505214509 82 216 5.2 13.9 0.00 0.00 0.00 31 1008.8
20260505214009 83 217 6.1 18.2 0.00 0.00 0.00 30 1008.7
20260505213509 83 225 7.0 18.2 0.00 0.00 0.00 31 1008.6
20260505212509 83 225 4.3 13.9 0.00 0.00 0.00 29 1008.6
20260505212009 83 224 4.3 13.0 0.00 0.00 0.00 29 1008.5
20260505211009 83 221 6.1 17.4 0.00 0.00 0.00 30 1008.3
20260505210509 83 220 6.1 17.4 0.00 0.00 0.00 30 1008.3
20260505210009 83 227 5.2 12.2 0.00 0.00 0.00 29 1008.2
20260505205509 84 227 5.2 14.8 0.00 0.00 0.00 31 1008.3
20260505205009 84 215 6.1 16.5 0.00 0.00 0.00 30 1008.2
20260505204509 84 211 5.2 16.5 0.00 0.00 0.00 30 1008.2
20260505204009 84 217 5.2 13.9 0.00 0.00 0.00 30 1008.2
20260505203508 84 215 6.1 16.5 0.00 0.00 0.00 30 1008.3
20260505203010 84 216 6.1 16.5 0.00 0.00 0.00 30 1008.2
20260505202509 83 219 6.1 13.9 0.00 0.00 0.00 30 1008.3